Weather History for Minchumina, AK

Change the Weather History Date:

Friday, November 2, 2012

  Actual Average Record
Temperature  
Mean Temperature 12 °F -  
Max Temperature 15 °F 16 °F 35 °F (2003)
Min Temperature 10 °F 7 °F -14 °F (1999)
Degree Days  
Heating Degree Days 52    
Moisture  
Dew Point 2 °F    
Average Humidity 64    
Maximum Humidity 73    
Minimum Humidity 53    
Precipitation  
Precipitation 0.00 in - - ()
Sea Level Pressure  
Sea Level Pressure 29.71 in    
Wind  
Wind Speed 3 mph (North)    
Max Wind Speed 6 mph    
Max Gust Speed -    
Visibility 10 miles    
Events      
Averages and records for this station are not official NWS values.
T = Trace of Precipitation, MM = Missing Value Source: NWS Daily Summary

Daily Weather History Graph

Daily Weather History Graph

Search for Another Location

Airport:

Trip Planner

Search our weather history database for the weather conditions in past years. The results will help you decide how hot, cold, wet, or windy it might be!

Date:

Astronomy

Nov. 02, 2012 Rise Set
Actual Time 9:56 AM AKDT 5:47 PM AKDT
Civil Twilight 9:02 AM AKDT 6:41 PM AKDT
Nautical Twilight 8:06 AM AKDT 7:38 PM AKDT
Astronomical Twilight 7:11 AM AKDT 8:32 PM AKDT
Moon 7:50 PM AKDT (11/2) 2:19 PM AKDT (11/2)
Length of Visible Light 9h 38m
Length of Day
7h 51m
Waning Gibbous, 86% of the Moon is Illuminated
Nov 2
Waning Gibbous
Nov 6
Last Quarter
Nov 13
New
Nov 20
First Quarter
Nov 28
Full

Hourly Weather History & Observations

Time (AKDT) Temp. Windchill Dew Point Humidity Pressure Visibility Wind Dir Wind Speed Gust Speed Precip Events Conditions
12:16 AM 14.0 °F 6.5 °F 3.2 °F 62% 29.95 in 10.0 mi NNE 4.6 mph - N/A   Clear
12:36 AM 12.2 °F 4.3 °F 3.2 °F 67% 29.95 in 10.0 mi NNE 4.6 mph - N/A   Clear
12:56 AM 12.2 °F 6.1 °F 3.2 °F 67% 29.94 in 10.0 mi NNE 3.5 mph - N/A   Clear
1:16 AM 12.2 °F 4.3 °F 3.2 °F 67% 29.94 in 10.0 mi NNE 4.6 mph - N/A   Clear
1:36 AM 14.0 °F 6.5 °F 3.2 °F 62% 29.94 in 10.0 mi NE 4.6 mph - N/A   Clear
1:56 AM 14.0 °F - 3.2 °F 62% 29.93 in 10.0 mi Calm Calm - N/A   Clear
2:16 AM 12.2 °F 6.1 °F 3.2 °F 67% 29.92 in 10.0 mi NE 3.5 mph - N/A   Clear
2:36 AM 12.2 °F - 3.2 °F 67% 29.91 in 10.0 mi Calm Calm - N/A   Clear
2:56 AM 12.2 °F - 3.2 °F 67% 29.91 in 10.0 mi Calm Calm - N/A   Clear
3:16 AM 12.2 °F 6.1 °F 3.2 °F 67% 29.90 in 10.0 mi NNE 3.5 mph - N/A   Clear
3:36 AM 12.2 °F - 3.2 °F 67% 29.89 in 10.0 mi Calm Calm - N/A   Clear
3:56 AM 12.2 °F 6.1 °F 3.2 °F 67% 29.87 in 10.0 mi North 3.5 mph - N/A   Clear
4:16 AM 12.2 °F 6.1 °F 1.4 °F 62% 29.86 in 10.0 mi North 3.5 mph - N/A   Clear
4:36 AM 12.2 °F 4.3 °F 3.2 °F 67% 29.85 in 10.0 mi NNE 4.6 mph - N/A   Clear
4:56 AM 14.0 °F 6.5 °F 3.2 °F 62% 29.85 in 10.0 mi NNE 4.6 mph - N/A   Clear
5:16 AM 12.2 °F 6.1 °F 3.2 °F 67% 29.84 in 10.0 mi NNE 3.5 mph - N/A   Clear
5:36 AM 14.0 °F 8.2 °F 3.2 °F 62% 29.83 in 10.0 mi NNE 3.5 mph - N/A   Clear
5:56 AM 14.0 °F 8.2 °F 3.2 °F 62% 29.82 in 10.0 mi NNE 3.5 mph - N/A   Clear
6:16 AM 12.2 °F 4.3 °F 1.4 °F 62% 29.82 in 10.0 mi NNE 4.6 mph - N/A   Clear
6:36 AM 12.2 °F 6.1 °F 1.4 °F 62% 29.81 in 10.0 mi NNE 3.5 mph - N/A   Clear
6:56 AM 12.2 °F - 1.4 °F 62% 29.80 in 10.0 mi Calm Calm - N/A   Clear
7:16 AM 12.2 °F 6.1 °F 1.4 °F 62% 29.80 in 10.0 mi North 3.5 mph - N/A   Clear
7:36 AM 12.2 °F - 1.4 °F 62% 29.78 in 10.0 mi Calm Calm - N/A   Clear
7:56 AM 12.2 °F 6.1 °F 1.4 °F 62% 29.77 in 10.0 mi North 3.5 mph - N/A   Clear
8:16 AM 10.4 °F - 1.4 °F 67% 29.76 in 10.0 mi Calm Calm - N/A   Clear
8:36 AM 10.4 °F - 1.4 °F 67% 29.76 in 10.0 mi Calm Calm - N/A   Clear
8:56 AM 10.4 °F - 3.2 °F 73% 29.75 in 10.0 mi Calm Calm - N/A   Clear
9:16 AM 10.4 °F - 1.4 °F 67% 29.75 in 10.0 mi Calm Calm - N/A   Clear
9:36 AM 10.4 °F - 1.4 °F 67% 29.74 in 10.0 mi Calm Calm - N/A   Clear
9:56 AM 10.4 °F - 1.4 °F 67% 29.73 in 10.0 mi Calm Calm - N/A   Clear
10:16 AM 10.4 °F - 1.4 °F 67% 29.72 in 10.0 mi Calm Calm - N/A   Clear
10:36 AM 10.4 °F - 1.4 °F 67% 29.71 in 10.0 mi Calm Calm - N/A   Clear
10:56 AM 10.4 °F 4.0 °F 1.4 °F 67% 29.71 in 10.0 mi North 3.5 mph - N/A   Clear
11:16 AM 12.2 °F - 3.2 °F 67% 29.70 in 10.0 mi Calm Calm - N/A   Clear
11:36 AM 12.2 °F - 1.4 °F 62% 29.69 in 10.0 mi Calm Calm - N/A   Clear
11:56 AM 12.2 °F - 1.4 °F 62% 29.68 in 10.0 mi Calm Calm - N/A   Clear
12:16 PM 10.4 °F 2.2 °F 1.4 °F 67% 29.67 in 10.0 mi NW 4.6 mph - N/A   Clear
12:36 PM 12.2 °F - 1.4 °F 62% 29.67 in 10.0 mi Calm Calm - N/A   Clear
12:56 PM 12.2 °F 4.3 °F 3.2 °F 67% 29.65 in 10.0 mi NNW 4.6 mph - N/A   Clear
1:16 PM 14.0 °F 8.2 °F 3.2 °F 62% 29.64 in 10.0 mi NNW 3.5 mph - N/A   Clear
1:36 PM 14.0 °F 8.2 °F 3.2 °F 62% 29.64 in 10.0 mi North 3.5 mph - N/A   Clear
2:56 PM 15.8 °F - 1.4 °F 53% 29.61 in 10.0 mi Calm Calm - N/A   Clear
3:16 PM 14.0 °F 8.2 °F 1.4 °F 57% 29.60 in 10.0 mi North 3.5 mph - N/A   Clear
3:36 PM 12.2 °F 6.1 °F 1.4 °F 62% 29.59 in 10.0 mi NW 3.5 mph - N/A   Clear
3:56 PM 12.2 °F 6.1 °F 1.4 °F 62% 29.58 in 10.0 mi North 3.5 mph - N/A   Clear
4:16 PM 12.2 °F 4.3 °F 1.4 °F 62% 29.57 in 10.0 mi North 4.6 mph - N/A   Clear
4:36 PM 12.2 °F 2.9 °F 1.4 °F 62% 29.56 in 10.0 mi North 5.8 mph - N/A   Clear
4:56 PM 12.2 °F 2.9 °F 1.4 °F 62% 29.56 in 10.0 mi North 5.8 mph - N/A   Clear
5:16 PM 12.2 °F 6.1 °F 1.4 °F 62% 29.57 in 10.0 mi North 3.5 mph - N/A   Clear
5:36 PM 10.4 °F 4.0 °F 1.4 °F 67% 29.57 in 10.0 mi North 3.5 mph - N/A   Clear
5:56 PM 10.4 °F 4.0 °F 1.4 °F 67% 29.56 in 10.0 mi NNW 3.5 mph - N/A   Clear
6:16 PM 10.4 °F 0.8 °F 1.4 °F 67% 29.57 in 10.0 mi NNW 5.8 mph - N/A   Clear
6:36 PM 10.4 °F 4.0 °F 1.4 °F 67% 29.57 in 10.0 mi North 3.5 mph - N/A   Clear
6:56 PM 10.4 °F - 1.4 °F 67% 29.57 in 10.0 mi Calm Calm - N/A   Clear
7:16 PM 10.4 °F - 1.4 °F 67% 29.56 in 10.0 mi Calm Calm - N/A   Clear
7:36 PM 10.4 °F - 1.4 °F 67% 29.57 in 10.0 mi Calm Calm - N/A   Clear
7:56 PM 12.2 °F - 1.4 °F 62% 29.57 in 10.0 mi Calm Calm - N/A   Partly Cloudy
8:16 PM 12.2 °F 6.1 °F 1.4 °F 62% 29.56 in 10.0 mi North 3.5 mph - N/A   Partly Cloudy
8:36 PM 12.2 °F 6.1 °F 1.4 °F 62% 29.56 in 10.0 mi North 3.5 mph - N/A   Clear
8:56 PM 12.2 °F 6.1 °F 1.4 °F 62% 29.57 in 10.0 mi NNW 3.5 mph - N/A   Scattered Clouds
9:16 PM 12.2 °F - 1.4 °F 62% 29.57 in 10.0 mi Calm Calm - N/A   Partly Cloudy
9:36 PM 12.2 °F - 1.4 °F 62% 29.57 in 10.0 mi Calm Calm - N/A   Scattered Clouds
9:56 PM 12.2 °F - 1.4 °F 62% 29.57 in 10.0 mi Calm Calm - N/A   Overcast
10:16 PM 12.2 °F 6.1 °F 3.2 °F 67% 29.57 in 10.0 mi North 3.5 mph - N/A   Overcast
10:36 PM 12.2 °F - 3.2 °F 67% 29.57 in 10.0 mi Calm Calm - N/A   Overcast
11:16 PM 12.2 °F 6.1 °F 3.2 °F 67% 29.58 in 10.0 mi North 3.5 mph - N/A   Overcast
11:36 PM 12.2 °F - 1.4 °F 62% 29.59 in 10.0 mi Calm Calm - N/A   Overcast
11:56 PM 12.2 °F - 1.4 °F 62% 29.59 in 10.0 mi Calm Calm - N/A   Overcast